| time (UTC) | temp F | wind direction | speed MPH | gust MPH | rain 1hr in | rain 24hr in | rain mn in | humidity % | barometer mb |
| 20260503023226 | 59 | 77 | 7.0 | 7.0 | 0.00 | 0.00 | 0.00 | 41 | 1018.3 |
| 20260503022722 | 59 | 59 | 7.0 | 7.0 | 0.00 | 0.00 | 0.00 | 41 | 1018.2 |
| 20260503022222 | 60 | 66 | 6.0 | 7.0 | 0.00 | 0.00 | 0.00 | 39 | 1018.3 |
| 20260503021719 | 60 | 53 | 6.0 | 7.0 | 0.00 | 0.00 | 0.00 | 39 | 1018.3 |
| 20260503021215 | 59 | 73 | 4.0 | 6.0 | 0.00 | 0.00 | 0.00 | 40 | 1018.4 |
| 20260503020713 | 60 | 89 | 4.0 | 6.0 | 0.00 | 0.00 | 0.00 | 39 | 1018.4 |
| 20260503020210 | 60 | 82 | 5.0 | 7.0 | 0.00 | 0.00 | 0.00 | 39 | 1018.2 |
| 20260503015707 | 62 | 76 | 5.0 | 6.0 | 0.00 | 0.00 | 0.00 | 38 | 1018.2 |
| 20260503015204 | 62 | 74 | 6.0 | 8.0 | 0.00 | 0.00 | 0.00 | 37 | 1018.5 |
| 20260503014700 | 63 | 61 | 6.0 | 6.0 | 0.00 | 0.00 | 0.00 | 36 | 1018.3 |
| 20260503014158 | 64 | 42 | 5.0 | 5.0 | 0.00 | 0.00 | 0.00 | 36 | 1018.3 |
| 20260503013655 | 64 | 35 | 5.0 | 6.0 | 0.00 | 0.00 | 0.00 | 36 | 1018.4 |
| 20260503013153 | 65 | 24 | 6.0 | 7.0 | 0.00 | 0.00 | 0.00 | 34 | 1018.4 |
| 20260503012649 | 65 | 49 | 5.0 | 8.0 | 0.00 | 0.00 | 0.00 | 35 | 1018.3 |
| 20260503012146 | 65 | 64 | 2.0 | 4.0 | 0.00 | 0.00 | 0.00 | 35 | 1018.5 |
| 20260503011643 | 65 | 36 | 4.0 | 6.0 | 0.00 | 0.00 | 0.00 | 35 | 1018.5 |
| 20260503011140 | 65 | 49 | 0.0 | 3.0 | 0.00 | 0.00 | 0.00 | 34 | 1018.5 |
| 20260503010636 | 66 | 322 | 4.0 | 5.0 | 0.00 | 0.00 | 0.00 | 35 | 1018.5 |
| 20260503010134 | 65 | 294 | 4.0 | 4.0 | 0.00 | 0.00 | 0.00 | 35 | 1018.5 |
| 20260503005631 | 64 | 7 | 2.0 | 4.0 | 0.00 | 0.00 | 0.00 | 35 | 1018.7 |
| 20260503005128 | 65 | 354 | 3.0 | 4.0 | 0.00 | 0.00 | 0.00 | 36 | 1018.5 |
| 20260503004624 | 65 | 325 | 2.0 | 4.0 | 0.00 | 0.00 | 0.00 | 35 | 1018.7 |
| 20260503004123 | 65 | 267 | 4.0 | 6.0 | 0.00 | 0.00 | 0.00 | 35 | 1018.7 |
| 20260503003619 | 64 | 359 | 1.0 | 5.0 | 0.00 | 0.00 | 0.00 | 35 | 1019.0 |
| 20260503003116 | 64 | 250 | 4.0 | 5.0 | 0.00 | 0.00 | 0.00 | 35 | 1019.1 |
| 20260503002613 | 65 | 310 | 5.0 | 6.0 | 0.00 | 0.00 | 0.00 | 35 | 1019.1 |
| 20260503002110 | 64 | 21 | 2.0 | 6.0 | 0.00 | 0.00 | 0.00 | 35 | 1018.8 |
| 20260503001606 | 64 | 359 | 3.0 | 5.0 | 0.00 | 0.00 | 0.00 | 35 | 1019.1 |
| 20260503001103 | 64 | 0 | 3.0 | 6.0 | 0.00 | 0.00 | 0.00 | 36 | 1019.1 |
| 20260503000600 | 65 | 351 | 4.0 | 7.0 | 0.00 | 0.00 | 0.00 | 35 | 1019.2 |
| 20260503000057 | 65 | 84 | 2.0 | 4.0 | 0.00 | 0.00 | 0.00 | 35 | 1019.1 |
| 20260502235554 | 65 | 105 | 3.0 | 4.0 | 0.00 | 0.00 | 0.00 | 35 | 1019.1 |
| 20260502235052 | 65 | 168 | 3.0 | 7.0 | 0.00 | 0.00 | 0.00 | 34 | 1019.2 |
| 20260502234548 | 65 | 308 | 3.0 | 5.0 | 0.00 | 0.00 | 0.00 | 35 | 1019.2 |
| 20260502234046 | 64 | 174 | 2.0 | 12.0 | 0.00 | 0.00 | 0.00 | 35 | 1019.3 |
| 20260502233546 | 66 | 197 | 4.0 | 7.0 | 0.00 | 0.00 | 0.00 | 34 | 1019.2 |
| 20260502233043 | 67 | 279 | 10.0 | 12.0 | 0.00 | 0.00 | 0.00 | 33 | 1019.2 |
| 20260502232539 | 67 | 284 | 4.0 | 9.0 | 0.00 | 0.00 | 0.00 | 34 | 1019.4 |
| 20260502232037 | 65 | 145 | 2.0 | 5.0 | 0.00 | 0.00 | 0.00 | 35 | 1019.5 |
| 20260502231534 | 68 | 269 | 6.0 | 8.0 | 0.00 | 0.00 | 0.00 | 33 | 1019.5 |
| 20260502231032 | 66 | 44 | 2.0 | 8.0 | 0.00 | 0.00 | 0.00 | 34 | 1019.6 |
| 20260502230530 | 67 | 258 | 9.0 | 11.0 | 0.00 | 0.00 | 0.00 | 33 | 1019.6 |
| 20260502230028 | 67 | 288 | 8.0 | 13.0 | 0.00 | 0.00 | 0.00 | 33 | 1019.6 |
| 20260502225522 | 67 | 247 | 4.0 | 5.0 | 0.00 | 0.00 | 0.00 | 33 | 1019.7 |
| 20260502225020 | 66 | 267 | 6.0 | 12.0 | 0.00 | 0.00 | 0.00 | 34 | 1019.6 |
| 20260502224516 | 67 | 293 | 9.0 | 11.0 | 0.00 | 0.00 | 0.00 | 34 | 1019.8 |
| 20260502224013 | 67 | 277 | 3.0 | 6.0 | 0.00 | 0.00 | 0.00 | 34 | 1019.9 |
| 20260502223511 | 68 | 237 | 3.0 | 4.0 | 0.00 | 0.00 | 0.00 | 34 | 1019.9 |
| 20260502223009 | 65 | 13 | 6.0 | 11.0 | 0.00 | 0.00 | 0.00 | 36 | 1020.2 |
| 20260502222506 | 66 | 25 | 2.0 | 4.0 | 0.00 | 0.00 | 0.00 | 35 | 1020.1 |
| 20260502222002 | 65 | 177 | 1.0 | 6.0 | 0.00 | 0.00 | 0.00 | 35 | 1020.1 |
| 20260502221458 | 66 | 354 | 4.0 | 4.0 | 0.00 | 0.00 | 0.00 | 35 | 1020.3 |
| 20260502220955 | 65 | 238 | 8.0 | 11.0 | 0.00 | 0.00 | 0.00 | 36 | 1020.4 |
| 20260502220450 | 64 | 236 | 4.0 | 8.0 | 0.00 | 0.00 | 0.00 | 37 | 1020.5 |
| 20260502215948 | 64 | 301 | 8.0 | 15.0 | 0.00 | 0.00 | 0.00 | 37 | 1020.6 |
| 20260502215445 | 65 | 355 | 8.0 | 8.0 | 0.00 | 0.00 | 0.00 | 35 | 1020.6 |
| 20260502214942 | 66 | 317 | 9.0 | 20.0 | 0.00 | 0.00 | 0.00 | 36 | 1020.6 |
| 20260502214438 | 64 | 330 | 3.0 | 8.0 | 0.00 | 0.00 | 0.00 | 38 | 1020.6 |
| 20260502213936 | 65 | 27 | 2.0 | 5.0 | 0.00 | 0.00 | 0.00 | 37 | 1020.6 |
| 20260502213432 | 64 | 223 | 5.0 | 11.0 | 0.00 | 0.00 | 0.00 | 37 | 1020.9 |
| 20260502212931 | 66 | 104 | 2.0 | 9.0 | 0.00 | 0.00 | 0.00 | 36 | 1020.8 |
| 20260502212430 | 64 | 283 | 9.0 | 14.0 | 0.00 | 0.00 | 0.00 | 38 | 1020.8 |
| 20260502211926 | 64 | 344 | 3.0 | 4.0 | 0.00 | 0.00 | 0.00 | 37 | 1020.9 |
| 20260502211422 | 63 | 231 | 2.0 | 15.0 | 0.00 | 0.00 | 0.00 | 38 | 1021.2 |
| 20260502210920 | 65 | 291 | 2.0 | 8.0 | 0.00 | 0.00 | 0.00 | 37 | 1021.0 |
| 20260502210417 | 64 | 149 | 3.0 | 6.0 | 0.00 | 0.00 | 0.00 | 38 | 1021.3 |
| 20260502205914 | 63 | 23 | 1.0 | 3.0 | 0.00 | 0.00 | 0.00 | 39 | 1021.4 |
| 20260502205410 | 63 | 28 | 7.0 | 13.0 | 0.00 | 0.00 | 0.00 | 39 | 1021.5 |
| 20260502204908 | 62 | 21 | 3.0 | 16.0 | 0.00 | 0.00 | 0.00 | 39 | 1021.3 |
| 20260502204404 | 63 | 343 | 8.0 | 11.0 | 0.00 | 0.00 | 0.00 | 39 | 1021.4 |
| 20260502203902 | 63 | 312 | 8.0 | 14.0 | 0.00 | 0.00 | 0.00 | 38 | 1021.4 |
| 20260502203359 | 64 | 284 | 12.0 | 12.0 | 0.00 | 0.00 | 0.00 | 38 | 1021.5 |
| 20260502202855 | 62 | 334 | 3.0 | 7.0 | 0.00 | 0.00 | 0.00 | 40 | 1021.4 |
| 20260502202352 | 63 | 351 | 4.0 | 12.0 | 0.00 | 0.00 | 0.00 | 40 | 1021.4 |
| 20260502201850 | 64 | 46 | 10.0 | 12.0 | 0.00 | 0.00 | 0.00 | 39 | 1021.5 |
| 20260502201346 | 64 | 25 | 6.0 | 11.0 | 0.00 | 0.00 | 0.00 | 39 | 1021.6 |
| 20260502200842 | 63 | 0 | 8.0 | 9.0 | 0.00 | 0.00 | 0.00 | 41 | 1021.9 |
| 20260502200338 | 61 | 59 | 6.0 | 8.0 | 0.00 | 0.00 | 0.00 | 42 | 1021.6 |
| 20260502195836 | 61 | 57 | 11.0 | 14.0 | 0.00 | 0.00 | 0.00 | 43 | 1021.8 |
| 20260502195333 | 61 | 11 | 6.0 | 14.0 | 0.00 | 0.00 | 0.00 | 43 | 1021.8 |
| 20260502194830 | 61 | 50 | 13.0 | 16.0 | 0.00 | 0.00 | 0.00 | 42 | 1022.0 |
| 20260502194326 | 60 | 20 | 4.0 | 13.0 | 0.00 | 0.00 | 0.00 | 44 | 1022.3 |
| 20260502193822 | 61 | 30 | 10.0 | 14.0 | 0.00 | 0.00 | 0.00 | 43 | 1021.9 |
| 20260502193320 | 60 | 48 | 11.0 | 18.0 | 0.00 | 0.00 | 0.00 | 44 | 1022.2 |
| 20260502192815 | 60 | 22 | 13.0 | 19.0 | 0.00 | 0.00 | 0.00 | 44 | 1022.2 |
| 20260502192313 | 60 | 10 | 9.0 | 17.0 | 0.00 | 0.00 | 0.00 | 43 | 1022.3 |
| 20260502191810 | 61 | 27 | 14.0 | 15.0 | 0.00 | 0.00 | 0.00 | 42 | 1022.2 |
| 20260502191308 | 61 | 37 | 17.0 | 20.0 | 0.00 | 0.00 | 0.00 | 42 | 1022.2 |
| 20260502190805 | 60 | 49 | 15.0 | 16.0 | 0.00 | 0.00 | 0.00 | 41 | 1022.4 |
| 20260502190302 | 61 | 48 | 19.0 | 19.0 | 0.00 | 0.00 | 0.00 | 41 | 1022.5 |
| 20260502185757 | 60 | 345 | 11.0 | 13.0 | 0.00 | 0.00 | 0.00 | 41 | 1022.5 |
| 20260502185253 | 61 | 71 | 12.0 | 20.0 | 0.00 | 0.00 | 0.00 | 41 | 1022.3 |
| 20260502184750 | 62 | 14 | 13.0 | 18.0 | 0.00 | 0.00 | 0.00 | 41 | 1022.6 |
| 20260502184245 | 61 | 35 | 13.0 | 16.0 | 0.00 | 0.00 | 0.00 | 41 | 1022.3 |
| 20260502183743 | 60 | 14 | 10.0 | 19.0 | 0.00 | 0.00 | 0.00 | 42 | 1022.4 |
| 20260502183238 | 61 | 46 | 12.0 | 19.0 | 0.00 | 0.00 | 0.00 | 42 | 1022.5 |
| 20260502182734 | 60 | 358 | 8.0 | 15.0 | 0.00 | 0.00 | 0.00 | 42 | 1022.6 |
| 20260502182230 | 61 | 27 | 8.0 | 16.0 | 0.00 | 0.00 | 0.00 | 42 | 1022.6 |
| 20260502181726 | 61 | 35 | 18.0 | 20.0 | 0.00 | 0.00 | 0.00 | 42 | 1022.8 |
| 20260502181220 | 61 | 43 | 12.0 | 20.0 | 0.00 | 0.00 | 0.00 | 42 | 1022.6 |
| 20260502180716 | 61 | 31 | 9.0 | 15.0 | 0.00 | 0.00 | 0.00 | 42 | 1022.6 |
| 20260502180214 | 61 | 22 | 16.0 | 19.0 | 0.00 | 0.00 | 0.00 | 42 | 1022.6 |
| 20260502170132 | 60 | 39 | 9.0 | 15.0 | 0.00 | 0.00 | 0.00 | 41 | 1022.7 |
| 20260502164119 | 61 | 34 | 15.0 | 22.0 | 0.00 | 0.00 | 0.00 | 40 | 1022.8 |
| 20260502163615 | 62 | 357 | 10.0 | 18.0 | 0.00 | 0.00 | 0.00 | 40 | 1022.6 |
| 20260502163111 | 61 | 41 | 9.0 | 18.0 | 0.00 | 0.00 | 0.00 | 41 | 1022.8 |
| 20260502162608 | 60 | 33 | 7.0 | 19.0 | 0.00 | 0.00 | 0.00 | 43 | 1022.7 |
| 20260502162106 | 61 | 53 | 11.0 | 17.0 | 0.00 | 0.00 | 0.00 | 42 | 1022.6 |
| 20260502161603 | 61 | 57 | 13.0 | 14.0 | 0.00 | 0.00 | 0.00 | 41 | 1022.7 |
| 20260502161100 | 60 | 40 | 19.0 | 21.0 | 0.00 | 0.00 | 0.00 | 42 | 1022.6 |
| 20260502160558 | 60 | 34 | 16.0 | 20.0 | 0.00 | 0.00 | 0.00 | 42 | 1022.7 |
| 20260502152011 | 58 | 40 | 14.0 | 19.0 | 0.00 | 0.00 | 0.00 | 44 | 1022.7 |
| 20260502151507 | 58 | 48 | 15.0 | 19.0 | 0.00 | 0.00 | 0.00 | 44 | 1022.4 |
| 20260502151005 | 59 | 44 | 17.0 | 19.0 | 0.00 | 0.00 | 0.00 | 43 | 1022.5 |
| 20260502150502 | 58 | 55 | 14.0 | 19.0 | 0.00 | 0.00 | 0.00 | 43 | 1022.4 |
| 20260502130341 | 51 | 43 | 16.0 | 24.0 | 0.00 | 0.00 | 0.00 | 53 | 1021.4 |
| 20260502123324 | 49 | 40 | 19.0 | 26.0 | 0.00 | 0.00 | 0.00 | 55 | 1021.2 |
| 20260502122821 | 48 | 38 | 21.0 | 24.0 | 0.00 | 0.00 | 0.00 | 56 | 1021.3 |
| 20260502122316 | 48 | 45 | 18.0 | 24.0 | 0.00 | 0.00 | 0.00 | 56 | 1021.0 |
| 20260502121815 | 48 | 51 | 18.0 | 24.0 | 0.00 | 0.00 | 0.00 | 56 | 1021.0 |
| 20260502121312 | 47 | 53 | 18.0 | 26.0 | 0.00 | 0.00 | 0.00 | 56 | 1021.2 |
| 20260502120809 | 48 | 43 | 13.0 | 22.0 | 0.00 | 0.00 | 0.00 | 56 | 1020.9 |
| 20260502120305 | 48 | 45 | 18.0 | 23.0 | 0.00 | 0.00 | 0.00 | 56 | 1020.9 |
| 20260502115803 | 48 | 51 | 21.0 | 24.0 | 0.00 | 0.00 | 0.00 | 56 | 1020.8 |
| 20260502115300 | 47 | 51 | 18.0 | 23.0 | 0.00 | 0.00 | 0.00 | 56 | 1020.9 |
| 20260502114756 | 47 | 42 | 19.0 | 25.0 | 0.00 | 0.00 | 0.00 | 56 | 1020.6 |
| 20260502114253 | 47 | 41 | 21.0 | 25.0 | 0.00 | 0.00 | 0.00 | 56 | 1020.6 |
| 20260502113750 | 48 | 44 | 21.0 | 28.0 | 0.00 | 0.00 | 0.00 | 55 | 1020.7 |
| 20260502113248 | 48 | 43 | 23.0 | 26.0 | 0.00 | 0.00 | 0.00 | 54 | 1020.5 |
| 20260502112746 | 48 | 40 | 24.0 | 28.0 | 0.00 | 0.00 | 0.00 | 54 | 1020.5 |
| 20260502112243 | 48 | 45 | 15.0 | 27.0 | 0.00 | 0.00 | 0.00 | 53 | 1020.3 |
| 20260502111740 | 49 | 52 | 23.0 | 25.0 | 0.00 | 0.00 | 0.00 | 53 | 1020.2 |
| 20260502111238 | 48 | 51 | 25.0 | 29.0 | 0.00 | 0.00 | 0.00 | 53 | 1020.3 |
| 20260502110735 | 48 | 48 | 17.0 | 26.0 | 0.00 | 0.00 | 0.00 | 53 | 1019.9 |
| 20260502110233 | 48 | 53 | 19.0 | 23.0 | 0.00 | 0.00 | 0.00 | 52 | 1020.1 |
| 20260502105731 | 49 | 54 | 21.0 | 28.0 | 0.00 | 0.00 | 0.00 | 51 | 1019.8 |
| 20260502105226 | 49 | 49 | 21.0 | 26.0 | 0.00 | 0.00 | 0.00 | 51 | 1019.7 |
| 20260502104724 | 49 | 44 | 17.0 | 26.0 | 0.00 | 0.00 | 0.00 | 50 | 1019.7 |
| 20260502104222 | 49 | 48 | 17.0 | 26.0 | 0.00 | 0.00 | 0.00 | 49 | 1019.5 |
| 20260502103719 | 49 | 53 | 20.0 | 23.0 | 0.00 | 0.00 | 0.00 | 50 | 1019.6 |
| 20260502103217 | 49 | 56 | 19.0 | 21.0 | 0.00 | 0.00 | 0.00 | 50 | 1019.9 |
| 20260502102713 | 49 | 62 | 16.0 | 22.0 | 0.00 | 0.00 | 0.00 | 49 | 1019.5 |
| 20260502102210 | 49 | 64 | 16.0 | 21.0 | 0.00 | 0.00 | 0.00 | 49 | 1019.5 |
| 20260502101708 | 48 | 53 | 16.0 | 21.0 | 0.00 | 0.00 | 0.00 | 49 | 1019.2 |
| 20260502101206 | 48 | 45 | 16.0 | 21.0 | 0.00 | 0.00 | 0.00 | 49 | 1019.5 |
| 20260502100704 | 49 | 46 | 14.0 | 19.0 | 0.00 | 0.00 | 0.00 | 48 | 1019.2 |
| 20260502100202 | 50 | 54 | 14.0 | 19.0 | 0.00 | 0.00 | 0.00 | 47 | 1019.2 |
| 20260502091136 | 54 | 53 | 12.0 | 17.0 | 0.00 | 0.00 | 0.00 | 39 | 1018.7 |
| 20260502090633 | 55 | 51 | 15.0 | 18.0 | 0.00 | 0.00 | 0.00 | 38 | 1018.7 |
| 20260502090131 | 53 | 55 | 21.0 | 22.0 | 0.00 | 0.00 | 0.00 | 38 | 1018.8 |
| 20260502071533 | 56 | 52 | 10.0 | 13.0 | 0.00 | 0.00 | 0.00 | 32 | 1018.1 |
| 20260502071031 | 55 | 53 | 9.0 | 12.0 | 0.00 | 0.00 | 0.00 | 33 | 1018.1 |
| 20260502070529 | 55 | 52 | 11.0 | 13.0 | 0.00 | 0.00 | 0.00 | 33 | 1018.1 |
| 20260502070027 | 55 | 44 | 10.0 | 12.0 | 0.00 | 0.00 | 0.00 | 33 | 1018.0 |
| 20260502065526 | 56 | 58 | 9.0 | 12.0 | 0.00 | 0.00 | 0.00 | 32 | 1018.1 |
| 20260502065023 | 55 | 45 | 9.0 | 12.0 | 0.00 | 0.00 | 0.00 | 33 | 1018.2 |
| 20260502064521 | 57 | 37 | 13.0 | 17.0 | 0.00 | 0.00 | 0.00 | 31 | 1018.1 |
| 20260502064018 | 55 | 37 | 10.0 | 14.0 | 0.00 | 0.00 | 0.00 | 33 | 1018.1 |
| 20260502063515 | 56 | 43 | 13.0 | 15.0 | 0.00 | 0.00 | 0.00 | 32 | 1018.1 |
| 20260502063013 | 57 | 35 | 12.0 | 14.0 | 0.00 | 0.00 | 0.00 | 31 | 1017.9 |
| 20260502062509 | 56 | 22 | 11.0 | 15.0 | 0.00 | 0.00 | 0.00 | 33 | 1018.1 |
| 20260502062008 | 56 | 27 | 13.0 | 13.0 | 0.00 | 0.00 | 0.00 | 33 | 1018.1 |
| 20260502061506 | 55 | 36 | 12.0 | 14.0 | 0.00 | 0.00 | 0.00 | 34 | 1018.1 |
| 20260502061002 | 57 | 7 | 7.0 | 10.0 | 0.00 | 0.00 | 0.00 | 32 | 1018.1 |
| 20260502060457 | 58 | 347 | 7.0 | 12.0 | 0.00 | 0.00 | 0.00 | 32 | 1017.9 |
| 20260502055954 | 57 | 0 | 9.0 | 11.0 | 0.00 | 0.00 | 0.00 | 32 | 1018.1 |
| 20260502055452 | 58 | 357 | 9.0 | 11.0 | 0.00 | 0.00 | 0.00 | 32 | 1018.0 |
| 20260502054947 | 57 | 353 | 10.0 | 13.0 | 0.00 | 0.00 | 0.00 | 32 | 1018.1 |
| 20260502054444 | 56 | 6 | 10.0 | 12.0 | 0.00 | 0.00 | 0.00 | 33 | 1018.0 |
| 20260502053941 | 57 | 3 | 10.0 | 12.0 | 0.00 | 0.00 | 0.00 | 32 | 1018.0 |
| 20260502053438 | 58 | 359 | 13.0 | 14.0 | 0.00 | 0.00 | 0.00 | 31 | 1018.1 |
| 20260502052936 | 58 | 355 | 12.0 | 15.0 | 0.00 | 0.00 | 0.00 | 31 | 1018.1 |
| 20260502052434 | 57 | 353 | 11.0 | 13.0 | 0.00 | 0.00 | 0.00 | 31 | 1018.1 |
| 20260502051932 | 59 | 354 | 13.0 | 15.0 | 0.00 | 0.00 | 0.00 | 30 | 1017.9 |
| 20260502051430 | 59 | 349 | 11.0 | 15.0 | 0.00 | 0.00 | 0.00 | 30 | 1017.9 |
| 20260502050927 | 58 | 347 | 10.0 | 13.0 | 0.00 | 0.00 | 0.00 | 30 | 1017.7 |
| 20260502050423 | 58 | 351 | 8.0 | 11.0 | 0.00 | 0.00 | 0.00 | 30 | 1018.1 |
| 20260502045920 | 57 | 359 | 10.0 | 13.0 | 0.00 | 0.00 | 0.00 | 30 | 1017.9 |
| 20260502045417 | 56 | 0 | 10.0 | 11.0 | 0.00 | 0.00 | 0.00 | 30 | 1018.1 |
| 20260502044914 | 56 | 357 | 9.0 | 11.0 | 0.00 | 0.00 | 0.00 | 31 | 1018.1 |
| 20260502044409 | 55 | 354 | 6.0 | 9.0 | 0.00 | 0.00 | 0.00 | 31 | 1018.0 |
| 20260502043907 | 55 | 16 | 6.0 | 9.0 | 0.00 | 0.00 | 0.00 | 31 | 1018.1 |
| 20260502043405 | 55 | 8 | 6.0 | 9.0 | 0.00 | 0.00 | 0.00 | 30 | 1018.0 |
| 20260502042904 | 55 | 12 | 7.0 | 9.0 | 0.00 | 0.00 | 0.00 | 30 | 1018.0 |
| 20260502042401 | 57 | 10 | 7.0 | 10.0 | 0.00 | 0.00 | 0.00 | 28 | 1018.1 |
| 20260502041858 | 57 | 9 | 8.0 | 9.0 | 0.00 | 0.00 | 0.00 | 28 | 1017.9 |
| 20260502041356 | 56 | 20 | 7.0 | 8.0 | 0.00 | 0.00 | 0.00 | 29 | 1018.0 |
| 20260502040853 | 57 | 5 | 6.0 | 9.0 | 0.00 | 0.00 | 0.00 | 28 | 1018.1 |
| 20260502040350 | 56 | 15 | 6.0 | 8.0 | 0.00 | 0.00 | 0.00 | 28 | 1018.1 |
| 20260502035846 | 57 | 10 | 7.0 | 8.0 | 0.00 | 0.00 | 0.00 | 27 | 1017.9 |
| 20260502035343 | 57 | 26 | 6.0 | 8.0 | 0.00 | 0.00 | 0.00 | 28 | 1018.0 |
| 20260502034840 | 57 | 23 | 6.0 | 7.0 | 0.00 | 0.00 | 0.00 | 28 | 1018.0 |
| 20260502034338 | 57 | 22 | 6.0 | 6.0 | 0.00 | 0.00 | 0.00 | 27 | 1017.6 |
| 20260502033837 | 57 | 16 | 5.0 | 8.0 | 0.00 | 0.00 | 0.00 | 27 | 1018.0 |
| 20260502033334 | 58 | 11 | 6.0 | 8.0 | 0.00 | 0.00 | 0.00 | 26 | 1017.9 |
| 20260502032830 | 59 | 357 | 6.0 | 8.0 | 0.00 | 0.00 | 0.00 | 25 | 1017.9 |
| 20260502032326 | 59 | 346 | 6.0 | 9.0 | 0.00 | 0.00 | 0.00 | 25 | 1017.7 |
| 20260502031824 | 60 | 341 | 6.0 | 9.0 | 0.00 | 0.00 | 0.00 | 24 | 1017.5 |
| 20260502031322 | 61 | 329 | 8.0 | 11.0 | 0.00 | 0.00 | 0.00 | 23 | 1017.5 |
| 20260502030821 | 60 | 330 | 7.0 | 8.0 | 0.00 | 0.00 | 0.00 | 24 | 1017.5 |
| 20260502030318 | 60 | 338 | 4.0 | 6.0 | 0.00 | 0.00 | 0.00 | 23 | 1017.3 |
| 20260502025815 | 61 | 349 | 5.0 | 6.0 | 0.00 | 0.00 | 0.00 | 22 | 1017.4 |
| 20260502025313 | 61 | 330 | 4.0 | 6.0 | 0.00 | 0.00 | 0.00 | 22 | 1017.2 |
| 20260502024811 | 62 | 315 | 5.0 | 6.0 | 0.00 | 0.00 | 0.00 | 21 | 1017.3 |
| 20260502024308 | 62 | 335 | 4.0 | 5.0 | 0.00 | 0.00 | 0.00 | 21 | 1017.5 |
| 20260502023806 | 63 | 354 | 4.0 | 4.0 | 0.00 | 0.00 | 0.00 | 20 | 1017.2 |